| time (UTC) | temp C | wind direction | speed KPH | gust KPH | rain 1hr cm | rain 24hr cm | rain mn cm | humidity % | barometer mb |
| 20260507160007 | 15 | 207 | 0.0 | 6.4 | 0.00 | 1.42 | 0.30 | 48 | 1008.0 |
| 20260507154502 | 16 | 271 | 0.0 | 6.4 | 0.00 | 1.42 | 0.30 | 46 | 1008.1 |
| 20260507153003 | 15 | 254 | 3.2 | 12.9 | 0.00 | 1.42 | 0.30 | 48 | 1008.2 |
| 20260507151600 | 15 | 237 | 1.6 | 4.8 | 0.00 | 1.42 | 0.30 | 50 | 1008.3 |
| 20260507150057 | 15 | 261 | 0.0 | 8.0 | 0.00 | 1.42 | 0.30 | 50 | 1008.4 |
| 20260507144554 | 15 | 338 | 1.6 | 9.7 | 0.00 | 1.42 | 0.30 | 55 | 1008.6 |
| 20260507143053 | 14 | 326 | 1.6 | 8.0 | 0.00 | 1.42 | 0.30 | 55 | 1008.6 |
| 20260507141553 | 14 | 138 | 0.0 | 4.8 | 0.00 | 1.42 | 0.30 | 59 | 1008.9 |
| 20260507140052 | 13 | 150 | 0.0 | 8.0 | 0.00 | 1.42 | 0.30 | 61 | 1008.9 |
| 20260507134550 | 13 | 252 | 0.0 | 8.0 | 0.00 | 1.42 | 0.30 | 60 | 1009.1 |
| 20260507133045 | 12 | 7 | 1.6 | 4.8 | 0.00 | 1.42 | 0.30 | 63 | 1009.3 |
| 20260507131554 | 12 | 280 | 0.0 | 4.8 | 0.00 | 1.42 | 0.30 | 66 | 1009.3 |
| 20260507130040 | 12 | 319 | 1.6 | 6.4 | 0.00 | 1.42 | 0.30 | 68 | 1009.4 |
| 20260507124536 | 11 | 1 | 0.0 | 4.8 | 0.00 | 1.42 | 0.30 | 71 | 1009.3 |
| 20260507123036 | 10 | 338 | 0.0 | 8.0 | 0.00 | 1.42 | 0.30 | 74 | 1009.7 |
| 20260507121534 | 10 | 322 | 0.0 | 4.8 | 0.00 | 1.42 | 0.30 | 74 | 1009.6 |
| 20260507120040 | 10 | 356 | 0.0 | 6.4 | 0.03 | 1.42 | 0.30 | 78 | 1009.7 |
| 20260507114532 | 9 | 268 | 1.6 | 6.4 | 0.03 | 1.42 | 0.30 | 83 | 1009.6 |
| 20260507113029 | 8 | 96 | 0.0 | 1.6 | 0.03 | 1.42 | 0.30 | 96 | 1009.6 |
| 20260507111528 | 7 | 349 | 0.0 | 4.8 | 0.03 | 1.42 | 0.30 | 97 | 1009.7 |
| 20260507110029 | 6 | 97 | 0.0 | 1.6 | 0.00 | 1.40 | 0.28 | 97 | 1009.7 |
| 20260507104527 | 6 | 214 | 0.0 | 1.6 | 0.00 | 1.40 | 0.28 | 97 | 1010.0 |
| 20260507103027 | 6 | 214 | 0.0 | 1.6 | 0.00 | 1.40 | 0.28 | 97 | 1009.7 |
| 20260507101527 | 6 | 257 | 0.0 | 1.6 | 0.00 | 1.40 | 0.28 | 96 | 1009.8 |
| 20260507100033 | 6 | 257 | 0.0 | 1.6 | 0.00 | 1.40 | 0.28 | 96 | 1010.0 |
| 20260507094524 | 6 | 257 | 0.0 | 1.6 | 0.00 | 1.40 | 0.28 | 96 | 1009.2 |
| 20260507093024 | 6 | 257 | 0.0 | 1.6 | 0.00 | 1.40 | 0.28 | 96 | 1008.8 |
| 20260507091521 | 6 | 257 | 0.0 | 1.6 | 0.00 | 1.40 | 0.28 | 95 | 1009.0 |
| 20260507090023 | 6 | 257 | 0.0 | 1.6 | 0.00 | 1.40 | 0.28 | 96 | 1009.3 |
| 20260507084518 | 6 | 228 | 0.0 | 1.6 | 0.00 | 1.40 | 0.28 | 96 | 1009.4 |
| 20260507083017 | 6 | 228 | 0.0 | 0.0 | 0.00 | 1.40 | 0.28 | 96 | 1009.3 |
| 20260507081533 | 7 | 228 | 0.0 | 1.6 | 0.00 | 1.40 | 0.28 | 96 | 1009.4 |
| 20260507080013 | 7 | 20 | 0.0 | 1.6 | 0.00 | 1.40 | 0.28 | 96 | 1008.9 |
| 20260507074523 | 7 | 95 | 0.0 | 1.6 | 0.00 | 1.40 | 0.28 | 96 | 1008.8 |
| 20260507073009 | 7 | 290 | 0.0 | 1.6 | 0.00 | 1.40 | 0.28 | 97 | 1008.9 |
| 20260507071507 | 8 | 289 | 0.0 | 3.2 | 0.00 | 1.40 | 0.28 | 97 | 1008.9 |
| 20260507070009 | 8 | 297 | 0.0 | 1.6 | 0.00 | 1.40 | 0.28 | 97 | 1008.4 |
| 20260507064504 | 8 | 297 | 0.0 | 1.6 | 0.00 | 1.40 | 0.28 | 97 | 1008.2 |
| 20260507063001 | 8 | 297 | 0.0 | 0.0 | 0.00 | 1.40 | 0.28 | 97 | 1008.2 |
| 20260507061607 | 8 | 297 | 0.0 | 1.6 | 0.00 | 1.40 | 0.28 | 97 | 1008.0 |
| 20260507060058 | 8 | 297 | 0.0 | 1.6 | 0.00 | 1.40 | 0.28 | 97 | 1008.1 |
| 20260507054638 | 8 | 297 | 0.0 | 1.6 | 0.00 | 1.40 | 0.28 | 97 | 1007.9 |
| 20260507053056 | 8 | 297 | 0.0 | 1.6 | 0.00 | 1.40 | 0.28 | 97 | 1007.7 |
| 20260507051553 | 9 | 286 | 0.0 | 3.2 | 0.05 | 1.40 | 0.28 | 97 | 1007.6 |
| 20260507050055 | 10 | 322 | 0.0 | 3.2 | 0.25 | 1.40 | 0.28 | 97 | 1007.9 |
| 20260507044554 | 10 | 328 | 0.0 | 1.6 | 0.28 | 1.40 | 0.28 | 97 | 1007.6 |
| 20260507043046 | 10 | 332 | 0.0 | 3.2 | 0.30 | 1.40 | 0.28 | 97 | 1007.6 |
| 20260507041548 | 10 | 328 | 0.0 | 4.8 | 0.28 | 1.35 | 0.23 | 97 | 1007.9 |
| 20260507040044 | 11 | 284 | 0.0 | 4.8 | 0.08 | 1.14 | 0.03 | 97 | 1007.6 |
| 20260507034542 | 11 | 57 | 0.0 | 1.6 | 0.05 | 1.12 | 1.12 | 98 | 1006.9 |
| 20260507033042 | 11 | 25 | 0.0 | 3.2 | 0.03 | 1.09 | 1.09 | 97 | 1006.9 |
| 20260507031546 | 11 | 131 | 0.0 | 1.6 | 0.00 | 1.07 | 1.07 | 97 | 1006.5 |
| 20260507030048 | 11 | 131 | 0.0 | 1.6 | 0.00 | 1.07 | 1.07 | 97 | 1006.5 |
| 20260507024541 | 11 | 131 | 0.0 | 3.2 | 0.00 | 1.07 | 1.07 | 97 | 1006.6 |
| 20260507023035 | 11 | 148 | 0.0 | 3.2 | 0.03 | 1.07 | 1.07 | 97 | 1006.8 |
| 20260507021536 | 11 | 140 | 0.0 | 6.4 | 0.03 | 1.07 | 1.07 | 97 | 1006.7 |
| 20260507020033 | 11 | 110 | 0.0 | 6.4 | 0.03 | 1.07 | 1.07 | 97 | 1006.9 |
| 20260507014544 | 11 | 166 | 0.0 | 3.2 | 0.03 | 1.09 | 1.07 | 97 | 1006.9 |
| 20260507013031 | 11 | 205 | 0.0 | 4.8 | 0.00 | 1.07 | 1.04 | 97 | 1007.1 |
| 20260507011532 | 12 | 169 | 1.6 | 6.4 | 0.00 | 1.07 | 1.04 | 97 | 1007.1 |
| 20260507010033 | 12 | 200 | 3.2 | 12.9 | 0.00 | 1.07 | 1.04 | 97 | 1007.2 |
| 20260507004526 | 12 | 162 | 1.6 | 9.7 | 0.00 | 1.07 | 1.04 | 97 | 1007.2 |
| 20260507003026 | 12 | 141 | 1.6 | 11.3 | 0.00 | 1.07 | 1.04 | 97 | 1007.2 |
| 20260507001528 | 12 | 273 | 3.2 | 12.9 | 0.00 | 1.07 | 1.04 | 97 | 1007.2 |
| 20260507000032 | 12 | 159 | 3.2 | 9.7 | 0.00 | 1.07 | 1.04 | 97 | 1007.2 |
| 20260506234524 | 12 | 180 | 1.6 | 11.3 | 0.00 | 1.09 | 1.04 | 97 | 1007.2 |
| 20260506233023 | 12 | 109 | 1.6 | 12.9 | 0.00 | 1.09 | 1.04 | 96 | 1007.3 |
| 20260506231521 | 12 | 148 | 3.2 | 11.3 | 0.00 | 1.09 | 1.04 | 96 | 1007.2 |
| 20260506230021 | 12 | 168 | 4.8 | 12.9 | 0.00 | 1.09 | 1.04 | 96 | 1007.3 |
| 20260506224518 | 12 | 127 | 1.6 | 14.5 | 0.00 | 1.09 | 1.04 | 96 | 1007.5 |
| 20260506223016 | 12 | 179 | 3.2 | 8.0 | 0.03 | 1.09 | 1.04 | 96 | 1007.7 |
| 20260506221518 | 12 | 118 | 3.2 | 11.3 | 0.05 | 1.09 | 1.04 | 96 | 1007.8 |
| 20260506220021 | 12 | 157 | 3.2 | 9.7 | 0.08 | 1.09 | 1.04 | 96 | 1007.9 |
| 20260506214513 | 12 | 255 | 1.6 | 6.4 | 0.13 | 1.09 | 1.04 | 96 | 1008.0 |
| 20260506213011 | 12 | 160 | 1.6 | 8.0 | 0.18 | 1.07 | 1.02 | 96 | 1008.2 |
| 20260506211511 | 12 | 148 | 3.2 | 9.7 | 0.18 | 1.04 | 0.99 | 96 | 1008.1 |
| 20260506210010 | 12 | 195 | 3.2 | 11.3 | 0.18 | 1.02 | 0.97 | 96 | 1008.2 |
| 20260506204511 | 12 | 107 | 0.0 | 6.4 | 0.18 | 0.97 | 0.91 | 96 | 1008.2 |
| 20260506203009 | 12 | 146 | 3.2 | 8.0 | 0.15 | 0.89 | 0.84 | 96 | 1008.6 |
| 20260506201507 | 12 | 157 | 1.6 | 8.0 | 0.18 | 0.86 | 0.81 | 95 | 1008.5 |
| 20260506200004 | 13 | 172 | 0.0 | 8.0 | 0.48 | 0.84 | 0.79 | 95 | 1008.8 |
| 20260506194505 | 12 | 123 | 1.6 | 8.0 | 0.64 | 0.79 | 0.71 | 95 | 1008.9 |
| 20260506193002 | 13 | 134 | 0.0 | 9.7 | 0.69 | 0.71 | 0.69 | 95 | 1008.9 |
| 20260506191502 | 13 | 78 | 1.6 | 6.4 | 0.64 | 0.69 | 0.64 | 94 | 1009.0 |
| 20260506190000 | 13 | 165 | 0.0 | 3.2 | 0.25 | 0.30 | 0.25 | 92 | 1009.6 |
| 20260506184601 | 13 | 162 | 3.2 | 6.4 | 0.10 | 0.15 | 0.10 | 88 | 1009.1 |
| 20260506183059 | 15 | 141 | 4.8 | 11.3 | 0.00 | 0.05 | 0.00 | 84 | 1008.9 |
| 20260506181557 | 15 | 148 | 4.8 | 14.5 | 0.00 | 0.05 | 0.00 | 80 | 1008.8 |
| 20260506180105 | 15 | 139 | 3.2 | 11.3 | 0.00 | 0.05 | 0.00 | 80 | 1008.8 |
| 20260506174556 | 15 | 95 | 1.6 | 11.3 | 0.00 | 0.05 | 0.00 | 79 | 1008.9 |
| 20260506173057 | 15 | 117 | 3.2 | 14.5 | 0.00 | 0.05 | 0.00 | 79 | 1009.3 |
| 20260506171556 | 16 | 158 | 3.2 | 11.3 | 0.00 | 0.05 | 0.00 | 79 | 1009.6 |
| 20260506164548 | 16 | 188 | 1.6 | 9.7 | 0.00 | 0.05 | 0.00 | 78 | 1010.2 |
| 20260506163104 | 16 | 105 | 3.2 | 11.3 | 0.00 | 0.05 | 0.00 | 78 | 1010.5 |
| 20260506161542 | 16 | 195 | 4.8 | 11.3 | 0.00 | 0.05 | 0.00 | 78 | 1010.9 |